This demonstration page uses our WeatherBlox Daily Observations layout. Learn more.

Left ArrowRight Arrow

Hourly Observations for May 21, 2018

Temp ( °F °C ) Dew Point ( °F °C ) Humidity (%) Winds ( mph kmh ) Pressure ( in mb ) Visibility ( mi km ) Precip ( " mm )
12:53 am 00:53 Hazy 67 19.4 26 -3.3 21 21 Calm 30.10 1019 5 8 0.00 0.00
1:53 am 01:53 Hazy 68 20 27 -2.8 21 21 Calm 30.10 1019 4 6 0.00 0.00
2:53 am 02:53 Clear with Mist and Fog 67 19.4 66 18.9 97 97 ENE 3 6 30.09 1019 6 10 0.00 0.00
3:53 am 03:53 Partly Cloudy 67 19.4 64 17.8 91 91 Calm 30.09 1019 10 16 0.00 0.00
4:53 am 04:53 Clear 65 18.3 62 16.7 90 90 Calm 30.10 1019 10 16 0.00 0.00
5:53 am 05:53 Clear 64 17.8 61 16.1 90 90 NE 5 7 30.11 1020 10 16 0.00 0.00
6:53 am 06:53 Sunny 65 18.3 61 16.1 87 87 E 5 7 30.12 1020 10 16 0.00 0.00
7:53 am 07:53 Partly Cloudy 65 18.3 63 17.2 93 93 ENE 6 9 30.14 1021 10 16 0.00 0.00
8:53 am 08:53 Sunny 68 20 63 17.2 84 84 E 6 9 30.14 1021 10 16 0.00 0.00
9:53 am 09:53 Mostly Sunny 70 21.1 64 17.8 82 82 E 7 11 30.15 1021 10 16 0.00 0.00
10:53 am 10:53 Sunny 73 22.8 66 18.9 79 79 E 6 9 30.14 1021 10 16 0.00 0.00
11:53 am 11:53 Sunny 76 24.4 68 20 77 77 Calm 30.13 1020 10 16 0.00 0.00
12:53 pm 12:53 Sunny 79 26.1 69 20.6 72 72 Calm 30.11 1020 10 16 0.00 0.00
1:53 pm 13:53 Sunny 83 28.3 69 20.6 63 63 Calm 30.08 1019 10 16 0.00 0.00
2:53 pm 14:53 Partly Cloudy 85 29.4 67 19.4 55 55 Calm 30.05 1018 10 16 0.00 0.00
3:53 pm 15:53 Sunny with Light Rain 86 30 65 18.3 49 49 W 7 11 30.03 1017 10 16 0.00 0.03
4:53 pm 16:53 Sunny 85 29.4 67 19.4 55 55 W 6 9 29.99 1016 10 16 0.00 0.03
5:53 pm 17:53 Sunny 85 29.4 66 18.9 53 53 WSW 5 7 29.98 1015 10 16 0.00 0.00
6:53 pm 18:53 Sunny 83 28.3 67 19.4 59 59 SW 7 11 29.99 1016 10 16 0.00 0.00
7:53 pm 19:53 Sunny 81 27.2 67 19.4 62 62 WSW 5 7 30.00 1016 10 16 0.00 0.00
8:24 pm 20:24 Mostly Cloudy 74 23.3 66 18.9 76 76 WNW 13 20 30.06 1018 10 16 0.00 0.00
8:53 pm 20:53 Mostly Cloudy with Light Rain 72 22.2 65 18.3 79 79 NW 13 20 30.04 1017 10 16 0.00 0.03
9:04 pm 21:04 Cloudy with Nearby Thunderstorms 71 21.7 66 18.9 84 84 WNW 10 17 30.06 1018 10 16 0.01 0.25
9:45 pm 21:45 Cloudy with Thunderstorms 68 20 67 19.4 96 96 NW 3 6 30.06 1018 7 11 0.15 3.81
9:53 pm 21:53 Cloudy with Thunderstorms 68 20 67 19.4 96 96 Calm 30.06 1018 6 10 0.16 4.06
10:00 pm 22:00 Cloudy with Nearby Thunderstorms 68 20 67 19.4 96 96 NNE 5 7 30.06 1018 5 8 0.01 0.25
10:10 pm 22:10 Cloudy with Light Rain 68 20 67 19.4 96 96 Calm 30.06 1018 9 14 0.02 0.51
10:53 pm 22:53 Mostly Cloudy 68 20 68 20 100 100 S 3 6 30.05 1018 10 16 0.02 0.51
11:53 pm 23:53 Clear 69 20.6 68 20 96 96 Calm 30.05 1018 10 16 0.00 0.00

Powered by AerisWeather